SL-12 DEB, 48541

Orbit data source: Space-Track

SL-12 DEB, 48541 is space debris in HEO originally from a launch on Mon, 01 Mar 2010 UTC launched from the Tyuratam Missile And Space Complex (TTMTR). Debris objects in space refer to the collection of defunct objects orbiting the Earth. Examples of debris include non-operational satellites, rocket bodies, and fragments generated from explosions, collisions, or faulty payload assembly.

Loading next visibility...
Identifier
48541, 2010-007AT
Orbit
HEO
Country
Flag of CISCIS
Related business
Manufacturer
RKKE
Mission
Spacecraft
Bus & Motor
Unknown
Mass
Unknown
Launch date (UTC)
2010-03-01 (16 years ago)
Launch vehicle
Unknown
Launch site
Tyuratam Missile And Space Complex (TTMTR)
Object type
Payload
Rocket body
Debris
Shape & HBR
Unknown shape, 0.1 m
Radar Cross Section
Small (<0.1 m²)

Expand to show TLE details & history
Last TLE update: 15 hours ago

TLE from 15 hours ago
0 SL-12 DEB
1 48541U 10007AT  25289.01033001  .00003378  00000-0  11314-1 0  9996
2 48541  64.5854 355.4821 5616061 343.5499   3.9409  4.37208986163671
Epoch: 2025-10-16T00:14Z
TLE epoch observation values (Epoch: 2025-10-16T00:14:52.512Z)
Latitude
0.00004°
Longitude
-33.01174°
Altitude
652.008 km
Speed
9.391 km/s
True Right ascension
23h 41m 55s
True Declination
0° 00' 00"
Sunlit
Object was in full shadow at epoch
Visualization orbit readout
Latitude
Unknown
Longitude
Unknown
Altitude
Unknown
Speed
Unknown
Apparent Right ascension
Unknown
Apparent Declination
Unknown
Sunlit
N/A
Visualization observer readout
Local Sidereal Time
09:43:25
Azimuth
Unknown
Elevation
Unknown
Doppler factor
Unknown
Orbital elements
Apogee altitude
18,290.81 km
Perigee altitude
547.243 km
Semi-major axis
15,797.164 km
Eccentricity
0.56161
Inclination
64.5854°
RAAN
355.4821°
Arg. of periapsis
343.5499°
True anomaly
16.79163°
Mean anomaly
3.9409°
Eccentric anomaly
8.94294°
Mean motion
1.09314 °/min
Orbital period
329.33 mins
BSTAR
0.011314
Loading maneuver chart data...
Computing Atmospheric mass density...
Loading historical data...
Loading historical data...
Loading historical data...
Loading historical data...
Loading historical data...
Loading historical data...
Loading historical data...

Documentation

Showing up to 5 results
|